Wind_Speed
19 19 19 19 20 20 19 19 20 20 19 19 19 19 19 19 19 19 19 18 18 18 18 18 17 17 17 16 16 16 16 15 15 15 15 15 15 15 15 16 17 17 18
23 21 21 21 21 21 20 20 21 21 20 20 20 21 21 20 19 20 21 21 20 20 20 20 19 19 19 19 19 18 18 17 17 17 17 17 18 18 18 18 18 19 20
24 23 23 22 23 22 21 21 21 22 22 22 22 21 22 21 21 22 22 22 22 22 22 21 21 21 20 21 21 21 20 20 20 20 19 20 20 20 20 20 21 22 22
27 25 25 24 24 24 23 23 23 21 22 22 22 23 23 22 22 22 22 22 23 23 23 23 22 23 22 23 23 23 23 22 22 22 22 22 22 23 23 23 24 24 25
27 28 27 26 26 25 25 24 23 22 21 21 22 22 23 23 23 23 23 23 23 24 24 25 24 25 25 25 25 26 25 25 24 24 24 24 25 25 26 26 26 27 28
29 28 27 28 27 27 27 26 25 25 24 23 24 24 24 24 24 25 24 24 25 25 25 26 26 26 26 27 27 26 27 27 27 27 27 27 27 28 28 29 29 30 31
29 28 28 28 28 28 28 27 28 28 26 25 25 25 25 25 25 26 26 26 26 26 26 26 27 27 28 28 28 28 29 29 29 29 29 29 30 30 31 31 32 32 33
29 28 27 27 28 28 29 28 28 27 27 27 26 26 27 27 28 28 28 28 28 28 28 28 28 28 29 29 29 29 30 31 31 31 31 31 32 32 33 33 34 35 35
29 30 29 27 27 28 28 28 27 27 28 29 28 27 27 28 28 29 31 31 30 30 30 30 30 30 30 30 30 31 31 31 31 32 32 33 33 33 34 35 36 37 38
30 30 29 28 28 28 28 28 29 29 29 29 30 29 29 29 30 30 31 32 32 31 31 31 32 32 32 32 32 32 32 32 33 33 33 34 34 35 36 37 38 39 39
30 30 30 30 30 30 29 29 29 30 29 30 30 30 30 30 30 31 32 33 33 33 33 33 33 34 34 34 33 34 34 34 34 34 35 35 36 37 37 38 39 40 41
30 30 30 30 31 31 30 30 30 30 29 30 30 31 31 30 31 33 32 33 33 33 34 34 34 35 35 35 35 35 36 35 35 36 37 38 38 38 39 40 40 41 41
30 30 30 30 31 31 31 32 32 31 31 31 31 31 32 32 33 33 33 33 34 34 34 33 34 35 36 36 36 36 36 37 37 38 39 38 39 39 40 41 41 41 41
30 30 31 31 30 30 31 32 33 32 32 32 31 31 32 33 33 34 33 33 33 33 34 34 35 36 37 37 37 37 37 38 39 39 39 39 40 40 40 41 41 41 41
29 29 30 30 30 31 32 31 32 32 32 31 31 31 31 32 33 34 34 34 34 34 34 34 35 36 37 37 37 38 38 38 39 39 40 40 40 39 40 41 41 41 41
29 29 29 29 30 31 31 32 31 31 31 32 32 32 32 32 33 34 34 34 35 36 36 35 35 36 37 37 37 38 38 39 40 40 40 40 40 40 40 40 40 40 39
27 27 28 28 28 29 30 30 31 32 32 32 33 33 33 33 33 34 34 34 34 35 35 35 36 36 37 38 39 39 39 39 39 39 40 40 40 40 39 38 38 37 36
26 27 27 27 27 28 29 29 30 31 32 32 32 33 32 32 32 33 34 34 34 34 35 35 35 36 37 37 37 37 38 38 37 38 38 38 38 37 37 36 35 34 34
26 27 27 27 27 27 28 28 28 29 29 30 31 31 31 31 32 33 33 33 33 33 33 34 35 36 36 36 35 36 36 36 37 36 36 36 35 35 33 32 32 31 30
25 25 25 25 25 25 25 25 26 27 28 29 29 29 29 30 30 30 31 31 32 32 33 33 34 33 34 34 34 34 34 34 34 34 33 33 32 31 30 30 29 29 28
23 23 22 23 23 23 24 24 25 25 26 26 26 27 27 28 29 29 29 30 30 30 30 31 31 31 31 31 31 32 32 31 31 31 30 29 28 28 27 27 26 25 24
21 21 21 21 21 22 21 22 23 24 24 25 25 25 26 27 27 27 28 28 28 28 28 28 29 29 29 29 29 29 29 28 27 27 26 25 25 25 24 23 21 21 20
18 19 19 18 19 20 20 20 20 21 21 21 21 22 22 22 23 23 24 25 25 24 25 26 26 27 27 27 27 26 25 25 24 23 23 22 22 22 21 20 19 19 18
16 16 16 16 17 17 17 17 17 17 18 18 18 18 19 19 19 20 20 21 22 22 23 24 24 24 24 23 23 22 22 21 20 20 19 19 19 18 17 16 16 16 16
13 13 14 14 14 14 14 14 14 15 15 15 16 16 16 16 16 17 18 19 19 20 21 21 20 20 19 19 18 18 18 19 18 17 17 16 15 14 14 13 13 13 14
11 11 11 11 12 11 12 12 12 12 12 12 12 13 14 14 15 16 16 16 16 16 16 16 16 16 16 15 15 15 15 15 14 14 14 14 12 11 11 11 11 12 12
Wind_Direction
266 266 265 269 272 274 271 267 263 265 266 264 261 259 260 256 252 254 257 257 257 260 261 261 264 265 265 263 265 267 269 271 271 271 273 273 274 276 277 277 277 277 279
267 267 268 269 271 272 269 266 263 262 263 263 261 258 258 257 255 254 255 256 259 260 259 260 264 264 264 263 264 264 266 270 270 271 272 275 275 275 276 276 277 277 278
266 267 269 270 270 270 269 266 263 262 263 262 260 260 257 256 256 254 255 256 259 260 259 260 263 264 265 265 263 262 264 267 269 270 272 275 276 275 274 276 277 277 278
265 266 267 268 268 268 267 266 265 264 264 262 260 258 258 256 254 254 255 257 258 260 259 259 262 264 264 264 262 262 264 266 269 270 272 274 276 275 275 276 277 278 278
264 263 264 266 266 266 265 265 264 265 264 262 260 258 257 256 254 254 254 255 256 257 258 259 262 262 263 263 263 264 265 266 268 270 271 273 275 276 276 276 277 278 278
265 265 266 267 266 263 262 261 261 261 261 261 259 258 257 254 254 254 254 254 255 258 258 259 261 262 263 264 263 264 265 266 269 270 270 272 274 276 276 276 276 277 278
265 266 269 267 265 262 262 261 260 260 258 259 259 258 257 256 254 254 255 256 258 258 257 257 260 262 263 264 264 265 267 269 270 271 271 272 274 275 276 275 277 278 278
263 265 266 265 263 263 262 262 260 260 259 260 260 259 259 256 255 255 256 255 256 257 256 256 259 261 262 264 266 267 269 270 271 271 271 272 273 274 276 276 277 279 279
266 263 263 263 262 263 262 261 258 259 259 260 260 260 259 256 254 255 255 255 256 255 254 255 258 260 262 264 265 267 269 270 272 273 273 274 274 275 276 277 278 280 280
267 265 265 262 261 261 263 263 261 260 259 260 260 260 259 256 256 256 255 256 257 256 257 258 259 260 261 264 266 267 268 270 271 273 274 275 276 277 278 278 279 280 281
267 266 264 261 262 261 262 261 261 261 260 260 259 260 259 258 258 258 258 257 257 258 260 262 263 262 262 264 266 267 268 269 270 272 275 276 278 279 280 280 280 281 282
268 267 263 262 262 261 261 262 262 261 261 260 259 259 258 258 258 258 259 258 259 259 262 264 265 265 264 266 267 268 268 269 270 272 275 276 277 279 280 280 280 281 282
270 267 263 262 261 261 260 261 261 260 260 260 259 258 259 258 259 259 260 260 260 260 261 263 264 265 266 267 269 268 268 269 271 271 274 275 276 278 279 280 281 282 283
269 267 263 262 262 261 260 259 259 260 261 259 258 258 258 258 258 259 259 258 258 258 260 263 265 265 266 266 268 269 269 270 271 273 274 276 277 278 279 280 282 284 285
269 268 265 264 263 261 262 261 259 258 258 258 257 257 258 258 258 259 259 259 261 261 263 265 266 267 267 267 269 269 270 270 271 273 275 277 277 278 280 281 284 286 287
270 268 266 265 263 262 262 261 258 258 259 259 258 259 259 258 259 259 260 261 261 262 264 266 266 267 268 269 271 271 271 271 273 275 276 277 277 279 281 283 284 287 288
269 268 266 265 264 263 262 260 258 257 260 259 259 258 258 258 258 259 260 260 261 263 263 265 267 268 269 271 272 273 272 273 276 277 278 278 279 280 282 283 285 287 288
269 269 268 266 266 265 263 261 260 259 259 257 258 258 258 259 260 261 262 262 262 263 264 265 268 269 271 272 273 274 275 277 278 278 278 279 281 282 282 283 285 287 288
268 267 266 266 265 263 262 261 260 259 259 259 259 258 259 262 262 262 262 262 262 263 265 266 269 270 272 275 275 275 277 279 279 280 279 280 281 282 282 284 285 286 287
268 267 267 265 264 263 262 263 263 262 262 261 261 261 262 263 264 263 262 263 264 266 268 270 272 273 275 275 276 277 279 280 280 280 281 281 280 281 281 283 285 285 286
269 268 268 266 263 263 262 262 263 262 261 259 260 261 261 263 264 264 264 265 266 266 268 271 273 273 275 276 277 278 279 279 280 280 280 279 279 278 279 283 284 285 287
268 268 267 264 261 262 263 263 262 260 259 260 261 261 262 263 265 265 266 265 265 267 268 271 274 275 276 277 277 278 278 279 279 278 278 277 278 277 280 282 284 286 288
268 268 268 266 265 264 263 261 259 258 260 261 261 261 263 263 266 266 266 265 265 267 271 274 276 277 277 276 276 276 277 277 276 276 276 277 277 278 279 281 283 286 290
273 270 269 268 267 263 262 258 257 258 258 258 258 260 262 264 267 270 270 269 270 272 275 277 277 277 277 278 277 276 274 273 274 274 275 276 277 278 279 281 283 285 289
272 272 271 269 266 260 258 256 256 256 259 259 259 263 266 269 273 277 276 275 274 276 278 278 280 280 279 278 277 273 271 271 272 272 275 278 278 277 278 281 284 289 292
274 273 271 268 265 259 256 256 258 261 262 265 267 268 270 274 277 282 281 280 279 280 281 281 282 282 280 279 277 275 272 272 272 272 273 274 275 274 278 280 284 291 297
Height
5864 5863 5864 5864 5864 5864 5864 5864 5865 5865 5866 5866 5867 5868 5868 5869 5870 5872 5872 5873 5874 5875 5875 5876 5876 5876 5877 5877 5878 5878 5878 5878 5878 5878 5878 5878 5878 5878 5878 5878 5877 5878 5877
5859 5859 5859 5859 5859 5859 5859 5860 5860 5861 5862 5862 5862 5863 5864 5865 5866 5867 5868 5869 5870 5870 5871 5872 5872 5872 5872 5873 5873 5874 5874 5874 5874 5874 5874 5874 5874 5874 5874 5873 5873 5873 5873
5853 5854 5854 5854 5854 5854 5854 5855 5855 5856 5856 5857 5857 5858 5859 5860 5861 5862 5863 5864 5865 5866 5866 5867 5868 5868 5868 5868 5869 5869 5869 5869 5869 5869 5870 5870 5870 5869 5869 5869 5868 5868 5867
5848 5848 5848 5848 5848 5849 5849 5850 5850 5850 5851 5852 5852 5853 5854 5855 5856 5857 5858 5859 5859 5860 5861 5862 5862 5863 5863 5863 5864 5864 5864 5864 5864 5865 5865 5864 5864 5864 5864 5863 5863 5862 5861
5841 5841 5842 5842 5842 5843 5843 5844 5845 5845 5845 5846 5847 5847 5848 5849 5850 5851 5852 5853 5854 5854 5855 5856 5857 5857 5857 5857 5858 5858 5858 5859 5859 5859 5859 5859 5859 5858 5858 5857 5856 5855 5854
5834 5834 5835 5835 5836 5837 5837 5838 5839 5839 5840 5841 5841 5842 5842 5843 5844 5845 5846 5847 5848 5848 5849 5850 5850 5851 5851 5851 5852 5852 5852 5852 5852 5852 5852 5852 5852 5851 5851 5850 5849 5848 5847
5826 5827 5827 5828 5829 5830 5830 5830 5831 5833 5834 5834 5835 5836 5837 5837 5838 5839 5840 5841 5842 5842 5843 5843 5844 5844 5845 5845 5846 5846 5846 5846 5846 5845 5845 5845 5845 5844 5843 5842 5841 5840 5839
5818 5819 5820 5821 5822 5823 5823 5824 5825 5826 5827 5828 5828 5829 5830 5831 5832 5833 5834 5834 5835 5836 5836 5837 5837 5838 5838 5838 5839 5839 5839 5839 5838 5838 5838 5837 5836 5836 5835 5834 5833 5832 5830
5811 5812 5813 5814 5815 5816 5816 5817 5817 5819 5820 5821 5822 5822 5823 5824 5825 5826 5827 5828 5828 5828 5829 5830 5830 5830 5831 5831 5831 5832 5832 5831 5831 5830 5830 5829 5828 5827 5827 5826 5824 5823 5821
5804 5804 5805 5806 5807 5808 5809 5810 5810 5811 5812 5813 5814 5815 5816 5817 5818 5819 5820 5820 5821 5821 5822 5822 5823 5823 5823 5823 5824 5824 5824 5823 5823 5822 5822 5821 5820 5819 5817 5816 5815 5813 5811
5795 5796 5796 5797 5799 5800 5801 5802 5803 5804 5805 5806 5806 5807 5807 5808 5810 5811 5812 5813 5813 5813 5814 5814 5814 5815 5815 5815 5815 5815 5815 5815 5814 5814 5813 5812 5811 5810 5808 5806 5805 5803 5801
5787 5788 5788 5789 5790 5791 5793 5794 5795 5796 5796 5798 5799 5799 5800 5800 5802 5803 5803 5804 5805 5805 5805 5806 5806 5806 5806 5806 5806 5806 5806 5806 5805 5805 5804 5803 5801 5800 5798 5797 5795 5792 5790
5779 5780 5780 5781 5781 5782 5783 5785 5786 5787 5788 5789 5790 5791 5792 5792 5793 5794 5795 5795 5796 5797 5797 5797 5797 5797 5797 5797 5797 5797 5797 5796 5796 5795 5794 5793 5792 5790 5789 5786 5784 5782 5780
5770 5771 5771 5771 5772 5773 5775 5777 5778 5779 5780 5781 5782 5783 5784 5784 5785 5786 5786 5787 5787 5788 5788 5789 5788 5788 5788 5788 5788 5787 5787 5787 5786 5786 5784 5783 5781 5780 5778 5776 5774 5772 5769
5762 5762 5763 5763 5764 5765 5767 5768 5769 5770 5771 5772 5773 5775 5775 5776 5777 5777 5778 5778 5779 5779 5780 5779 5779 5779 5779 5778 5778 5778 5777 5777 5776 5775 5774 5773 5771 5769 5768 5766 5764 5761 5759
5754 5754 5754 5755 5756 5756 5758 5759 5760 5761 5762 5763 5765 5766 5766 5767 5768 5768 5769 5769 5770 5770 5770 5770 5770 5770 5770 5769 5768 5767 5767 5767 5766 5765 5764 5762 5761 5759 5758 5756 5754 5751 5749
5746 5746 5746 5747 5747 5748 5749 5750 5751 5752 5753 5754 5755 5756 5757 5758 5758 5759 5760 5760 5760 5761 5761 5761 5761 5761 5760 5759 5758 5758 5757 5756 5755 5754 5753 5752 5751 5749 5748 5746 5744 5742 5739
5738 5738 5738 5739 5739 5740 5741 5741 5742 5743 5744 5745 5746 5747 5748 5749 5749 5750 5750 5751 5751 5752 5752 5752 5752 5751 5750 5749 5749 5748 5747 5746 5745 5744 5743 5742 5741 5739 5738 5736 5734 5732 5730
5730 5731 5731 5731 5731 5732 5733 5733 5734 5735 5736 5737 5738 5739 5739 5740 5740 5741 5741 5742 5743 5743 5743 5743 5742 5742 5741 5740 5739 5738 5737 5736 5735 5734 5733 5732 5731 5730 5728 5727 5725 5723 5721
5723 5723 5723 5723 5724 5724 5725 5726 5726 5727 5728 5729 5730 5731 5731 5732 5732 5732 5733 5734 5734 5734 5734 5734 5733 5733 5732 5731 5730 5729 5728 5727 5726 5725 5724 5723 5722 5721 5720 5719 5717 5715 5714
5716 5716 5716 5716 5717 5717 5718 5718 5719 5720 5721 5722 5722 5723 5724 5724 5724 5724 5725 5725 5726 5726 5726 5725 5725 5724 5723 5722 5721 5720 5719 5718 5717 5716 5715 5714 5714 5713 5712 5711 5710 5708 5707
5709 5709 5709 5710 5710 5710 5711 5712 5713 5713 5714 5715 5716 5716 5717 5717 5717 5717 5717 5718 5718 5718 5718 5717 5717 5716 5715 5714 5713 5712 5711 5710 5709 5709 5708 5707 5707 5706 5705 5705 5703 5702 5701
5704 5704 5704 5704 5704 5705 5705 5706 5707 5707 5708 5709 5710 5710 5710 5710 5710 5710 5710 5710 5710 5710 5710 5710 5709 5708 5707 5706 5705 5704 5703 5703 5702 5702 5702 5701 5700 5700 5699 5699 5698 5697 5696
5699 5699 5699 5699 5699 5700 5700 5701 5702 5702 5703 5704 5704 5704 5705 5705 5705 5705 5704 5704 5704 5704 5704 5703 5702 5701 5700 5699 5698 5698 5697 5697 5696 5696 5696 5696 5695 5694 5694 5694 5693 5692 5691
5694 5694 5694 5695 5695 5695 5696 5697 5698 5698 5698 5699 5700 5700 5700 5700 5700 5700 5700 5699 5698 5698 5697 5697 5696 5695 5694 5693 5692 5692 5692 5692 5692 5691 5690 5690 5690 5690 5690 5690 5689 5688 5687
5691 5691 5691 5691 5691 5692 5692 5693 5694 5694 5695 5695 5696 5696 5696 5696 5696 5695 5695 5694 5694 5693 5692 5691 5691 5690 5689 5689 5688 5688 5687 5687 5687 5687 5687 5686 5686 5686 5686 5686 5685 5684 5683